Regional Weather Roundup
Issued by NWS Glasgow, MT

Home | Current Version | Previous Version | Text Only | Print | Product List | Glossary On
Versions: 1 2 3 4 5 6 7 8 9 10 11 12 13 14 15 16 17 18 19 20 21 22 23 24 25 26 27 28 29 30 31 32 33 34 35 36 37 38 39 40 41 42 43 44 45 46 47 48 49 50
000
ASUS45 KGGW 262215
RWRGGW
HOURLY WEATHER ROUNDUP FOR NORTHEAST MONTANA
NATIONAL WEATHER SERVICE GLASGOW MONTANA
400 PM MDT THU MAR 26 2015

NOTE: "FAIR" INDICATES FEW OR NO CLOUDS BELOW 12,000 FEET WITH NO
SIGNIFICANT WEATHER AND/OR OBSTRUCTIONS TO VISISBILITY.

NORTHEAST MONTANA


CITY           SKY/WX    TMP DP  RH WIND       PRES   REMARKS
GLASGOW        PTSUNNY   51  31  46 SE14      30.07F
PLENTYWOOD       N/A     43  30  61 S8          N/A
WOLF POINT     CLOUDY    49  36  61 E13       30.11F
JORDAN           N/A     60  31  33 VRB7      30.04F
WINNETT          N/A     60  33  36 W13G23      N/A
SIDNEY         CLOUDY    45  32  61 E7        30.16F
GLENDIVE       CLOUDY    46  28  49 E8        30.12F
MALTA            N/A     59  33  37 E3          N/A
SCOBEY           N/A     39  27  62 E9        30.10F

FORT PECK REPORTS


CITY           SKY/WX    TMP DP  RH WIND       PRES   REMARKS
FORT PECK        N/A     51  29  42 SE5         N/A
THE PINES        N/A     54  28  36 NE5         N/A

SOUTHEAST MONTANA


CITY           SKY/WX    TMP DP  RH WIND       PRES   REMARKS
BILLINGS       CLOUDY    62  33  33 NW22G31   30.07S
MILES CITY     CLOUDY    56  30  37 W7        30.06F
BAKER          CLOUDY    49  28  44 VRB3      30.11F
LIVINGSTON     CLOUDY    63  34  33 W25G35    30.16F

CENTRAL MONTANA


CITY           SKY/WX    TMP DP  RH WIND       PRES   REMARKS
HAVRE          CLOUDY    64  35  34 NW9       30.00F
LEWISTOWN      CLOUDY    61  34  36 W25G33    30.06S
GREAT FALLS    MOSUNNY   64  34  32 W26G32    30.06S
CUT BANK       PTSUNNY   62  34  35 W28G36    30.05R
HELENA         MOSUNNY   61  37  41 W15G30    30.20F
BUTTE          CLOUDY    54  34  46 NW17G24   30.28S
BOZEMAN        CLOUDY    59  34  39 NW17G25   30.21F

WESTERN MONTANA


CITY           SKY/WX    TMP DP  RH WIND       PRES   REMARKS
MISSOULA       CLOUDY    54  40  59 E6        30.31F
KALISPELL      NOT AVBL

NORTH DAKOTA


CITY           SKY/WX    TMP DP  RH WIND       PRES   REMARKS
WILLISTON      MOSUNNY   44  24  45 S6        30.16F
DICKINSON      CLOUDY    38  30  73 SE8       30.15S
MINOT          SUNNY     37  19  48 E5        30.22R
BISMARCK       PTSUNNY   40  21  46 VRB5      30.22S

SOUTHERN SASKATCHEWAN


CITY           SKY/WX    TMP DP  RH WIND       PRES   REMARKS
REGINA         PTSUNNY   37  28  70 SE13G20   30.16
MOOSE JAW      PTSUNNY   43  36  75 S8        30.13F
ESTEVAN        CLOUDY    39  25  56 E10       30.20S
SWIFT CURRENT  CLOUDY    50  30  46 SE10      30.02F



USA.gov is the U.S. government's official web portal to all federal, state and local government web resources and services.